Rechercher aéroport 
image banner adimage banner adimage banner ad
image banner ad

2CA3 - Crosswinds

Situé à Twentynine Palms, United States

ICAO - 2CA3, IATA -

Données fournies par Airmate  

Information générale

Coordonnées: N34°9'36" W115°59'51"
Élévation : 1835 feet MSL.
Variation magnétique : 14° East
Voir autres Aéroports à California

Données opérationnelles

Special qualification required
Heure actuelle UTC:
Heure actuelle locale:
Météo à : KNXP - Twentynine Palms Self ( 21 km )
METAR: KNXP 270456Z VRB03KT 7SM FEW100 29/14 A3005 RMK AO2 SLP142 T02890144
TAF: TAF KNXP 2703/2803 VRB06KT 9999 FEW080 FEW150 QNH2999INS FM270930 VRB06KT 9999 SKC QNH3003INS BECMG 2717/2719 15010KT 9999 SKC QNH3002INS T25/2714Z T37/2723Z
Voir NOTAMs / SUP AIP / TFR affectant cet aéroport [VIEW]
Fréquences de communication: [VIEW]

Pistes:

Identifiant RWYQFULongueur (ft)Largeur (ft)SurfaceLDA (ft)
092600200EARTH
272600200EARTH
181400200EARTH
361400200EARTH

Coordonnées de l'aéroport

Adresse: Twentynine Palms United States

Vue satellite de 2CA3